Temperature
1 2 2 1 1 1 0 0 -0 0 0 -1 -1 -1 -1 -1 -1 -1 -2 -2 -2 -2 -2 -2 -2 -2 -2 -1 -1 -1 -0 0 1 1 1 1 1 2 2 2 2 2 2 2
0 2 2 1 0 0 0 -0 -0 -0 -1 -1 -1 -1 -2 -2 -2 -2 -3 -3 -2 -2 -2 -2 -2 -2 -2 -2 -1 -1 -1 -0 -0 0 1 1 1 1 1 1 1 1 1 1
-0 1 1 -0 -1 -1 -1 -1 -1 -2 -2 -2 -2 -2 -2 -3 -3 -3 -3 -3 -3 -3 -3 -3 -3 -3 -3 -2 -2 -2 -1 -1 -1 -1 -0 -0 0 0 0 0 1 1 1 1
-1 -0 -2 -1 -1 -1 -1 -2 -2 -2 -2 -2 -2 -2 -3 -3 -4 -4 -4 -4 -4 -3 -3 -3 -3 -3 -3 -3 -2 -2 -2 -2 -1 -1 -1 -1 -1 -1 -0 -0 -0 0 0 0
-1 -2 -1 -1 -1 -2 -3 -3 -3 -3 -3 -3 -3 -3 -3 -3 -4 -4 -4 -4 -4 -4 -4 -4 -4 -3 -3 -3 -3 -3 -2 -2 -2 -2 -2 -1 -1 -1 -1 -1 -1 -1 -1 -1
-2 -2 -2 -3 -2 -2 -2 -3 -3 -3 -4 -4 -4 -4 -4 -4 -4 -5 -4 -4 -4 -4 -4 -4 -4 -4 -4 -4 -3 -3 -3 -3 -2 -2 -2 -2 -2 -2 -2 -1 -1 -1 -1 -1
-3 -3 -3 -4 -3 -2 -3 -4 -4 -4 -4 -4 -5 -5 -5 -5 -5 -5 -5 -5 -5 -4 -4 -4 -4 -4 -4 -4 -4 -4 -4 -3 -3 -3 -3 -3 -3 -2 -2 -2 -2 -2 -2 -2
-3 -3 -4 -4 -4 -4 -5 -4 -4 -4 -5 -5 -5 -5 -6 -6 -6 -6 -6 -5 -5 -5 -5 -5 -5 -5 -5 -5 -5 -4 -4 -4 -4 -3 -3 -3 -3 -3 -3 -3 -3 -3 -3 -3
-4 -4 -4 -4 -4 -5 -5 -5 -5 -5 -6 -6 -6 -6 -6 -6 -6 -6 -6 -6 -6 -6 -5 -5 -5 -5 -5 -5 -5 -5 -5 -4 -4 -4 -4 -4 -4 -4 -4 -4 -4 -4 -4 -3
-4 -4 -4 -4 -4 -5 -5 -6 -6 -6 -6 -6 -7 -7 -7 -7 -7 -7 -7 -7 -6 -6 -6 -6 -6 -6 -6 -6 -5 -5 -5 -5 -5 -4 -4 -4 -4 -4 -4 -4 -4 -4 -4 -4
-5 -5 -5 -5 -5 -6 -6 -6 -6 -7 -7 -7 -7 -8 -8 -8 -8 -8 -7 -7 -7 -7 -7 -7 -6 -6 -6 -6 -6 -6 -6 -5 -5 -5 -5 -5 -5 -5 -5 -5 -5 -5 -5 -5
-6 -5 -6 -6 -6 -6 -7 -7 -7 -7 -8 -8 -8 -8 -8 -8 -8 -8 -8 -8 -8 -8 -7 -7 -7 -7 -6 -6 -6 -6 -6 -6 -6 -5 -6 -6 -6 -6 -6 -6 -5 -5 -5 -5
-6 -6 -6 -7 -7 -7 -7 -8 -8 -8 -8 -8 -9 -9 -9 -9 -9 -9 -9 -9 -9 -8 -8 -8 -7 -7 -7 -7 -7 -7 -7 -6 -6 -6 -6 -6 -6 -6 -6 -6 -6 -6 -6 -6
-7 -7 -7 -7 -8 -8 -8 -8 -9 -9 -9 -9 -9 -9 -9 -9 -9 -9 -9 -9 -9 -9 -8 -8 -8 -8 -8 -8 -7 -7 -7 -7 -7 -7 -7 -7 -7 -7 -7 -7 -6 -6 -6 -6
-8 -8 -8 -8 -8 -9 -9 -9 -9 -9 -9 -10 -10 -10 -10 -10 -10 -10 -9 -9 -9 -9 -9 -9 -9 -8 -8 -8 -8 -8 -8 -8 -8 -8 -8 -7 -7 -7 -7 -7 -7 -7 -7 -7
-8 -8 -9 -9 -9 -9 -9 -10 -10 -10 -10 -10 -10 -10 -10 -10 -10 -10 -10 -10 -10 -10 -10 -10 -9 -9 -9 -9 -9 -8 -8 -8 -8 -8 -8 -8 -8 -8 -8 -8 -8 -8 -7 -7
-9 -9 -9 -9 -10 -10 -10 -10 -10 -11 -11 -11 -11 -11 -11 -11 -10 -10 -10 -10 -10 -10 -10 -10 -10 -10 -10 -10 -9 -9 -9 -9 -9 -9 -8 -8 -8 -8 -8 -8 -8 -8 -8 -8
-9 -9 -10 -10 -10 -10 -10 -10 -11 -11 -11 -11 -11 -11 -11 -11 -11 -11 -11 -11 -10 -10 -10 -11 -11 -10 -10 -10 -10 -10 -10 -9 -9 -9 -9 -9 -9 -9 -9 -9 -9 -9 -8 -8
-9 -10 -10 -10 -10 -11 -11 -11 -11 -11 -11 -11 -11 -11 -11 -11 -11 -11 -11 -11 -11 -11 -11 -11 -11 -11 -11 -10 -11 -10 -10 -10 -10 -10 -10 -9 -9 -9 -9 -9 -9 -9 -9 -9
-10 -10 -10 -10 -11 -11 -11 -11 -11 -11 -11 -11 -11 -11 -11 -11 -12 -12 -12 -11 -11 -12 -11 -11 -11 -11 -11 -11 -11 -11 -11 -11 -10 -10 -10 -10 -10 -10 -10 -10 -10 -10 -9 -9
-10 -10 -10 -11 -11 -11 -11 -11 -11 -11 -11 -11 -12 -12 -12 -12 -12 -12 -12 -12 -12 -12 -12 -12 -11 -11 -11 -11 -11 -11 -11 -11 -11 -11 -11 -11 -10 -10 -10 -10 -10 -10 -10 -10
-10 -11 -11 -11 -11 -11 -11 -11 -11 -12 -12 -12 -12 -12 -12 -12 -12 -12 -12 -12 -12 -12 -12 -12 -12 -12 -12 -12 -12 -12 -12 -11 -11 -11 -11 -11 -11 -11 -11 -11 -11 -11 -11 -10
-11 -11 -11 -11 -11 -11 -11 -12 -12 -12 -12 -12 -12 -12 -12 -12 -12 -13 -12 -12 -12 -12 -12 -12 -12 -12 -12 -12 -12 -12 -12 -12 -12 -12 -12 -12 -11 -11 -11 -11 -11 -11 -11 -11
-11 -11 -12 -12 -12 -12 -12 -12 -12 -12 -12 -12 -12 -13 -13 -13 -13 -13 -13 -13 -13 -13 -13 -13 -13 -13 -13 -12 -12 -12 -12 -12 -12 -12 -12 -12 -12 -12 -12 -12 -12 -12 -12 -11
-12 -12 -12 -12 -12 -12 -12 -12 -12 -12 -12 -13 -13 -13 -13 -13 -13 -13 -13 -13 -13 -13 -13 -13 -13 -13 -13 -13 -13 -13 -13 -13 -12 -12 -12 -12 -12 -12 -12 -12 -12 -12 -12 -12
-12 -12 -12 -12 -13 -13 -13 -13 -13 -13 -13 -13 -13 -13 -13 -13 -13 -13 -13 -13 -13 -13 -13 -13 -13 -13 -13 -13 -13 -13 -13 -13 -13 -13 -13 -13 -13 -13 -13 -12 -12 -12 -12 -12
-12 -12 -13 -13 -13 -13 -13 -13 -13 -13 -13 -13 -13 -13 -13 -13 -13 -13 -14 -13 -13 -13 -13 -13 -13 -13 -13 -13 -13 -13 -13 -13 -13 -13 -13 -13 -13 -13 -13 -13 -13 -13 -13 -12
Wind_Speed
8 8 5 4 5 4 3 5 5 6 6 6 7 8 8 8 9 9 9 9 8 8 7 7 7 7 6 6 6 5 4 4 3 3 3 3 3 3 3 3 2 2 3 2
7 7 5 5 5 4 4 5 7 7 6 6 7 7 7 8 9 9 9 10 9 8 8 7 7 7 6 6 6 4 4 4 3 3 3 3 3 2 2 3 3 3 2 2
5 4 4 4 2 2 1 2 3 4 5 7 8 8 7 7 8 9 10 10 9 8 8 7 6 6 6 5 5 4 4 4 3 2 3 3 2 2 2 2 2 3 3 2
4 4 4 1 3 2 0 2 3 3 6 7 7 6 5 6 8 9 9 10 9 8 8 7 6 6 6 5 5 4 4 4 4 3 3 3 3 2 2 2 2 2 2 2
2 3 4 1 3 3 2 2 4 5 7 8 8 5 3 7 9 8 8 8 7 7 8 7 6 6 6 5 5 5 4 4 3 3 2 2 2 2 2 1 2 2 2 2
3 3 3 1 3 5 3 1 6 7 7 8 8 5 5 9 10 9 9 7 7 7 7 7 6 6 6 5 5 5 5 4 4 3 2 2 2 2 2 1 1 1 2 2
4 3 2 2 5 4 1 3 6 6 6 6 5 4 7 9 9 8 8 8 8 7 6 6 6 6 5 5 5 5 5 4 4 3 3 2 2 2 2 1 1 1 2 2
2 3 2 3 3 2 2 4 6 6 6 6 6 7 8 8 8 9 8 8 8 6 6 6 5 5 6 5 5 5 5 4 4 4 3 3 2 2 2 2 2 1 1 2
2 2 1 0 0 2 3 5 5 6 7 6 7 7 8 8 8 8 8 8 7 6 6 6 5 5 5 5 5 5 5 4 4 4 3 3 2 2 2 2 2 1 1 1
3 3 2 2 2 3 4 4 5 6 6 6 7 7 7 7 7 7 7 7 7 6 6 7 6 5 5 5 5 4 4 4 3 3 3 3 3 2 2 2 2 2 1 1
4 4 4 2 4 5 6 5 6 6 6 6 6 7 7 7 7 7 7 7 6 6 6 6 6 6 6 5 4 4 4 4 3 3 2 2 3 2 2 2 2 2 1 1
3 2 3 4 5 6 6 6 6 6 7 6 6 7 7 6 6 6 7 6 6 6 6 6 6 6 6 5 4 4 4 4 3 2 2 2 2 3 5 4 4 4 4 3
2 3 4 4 4 5 5 6 6 6 6 6 6 5 6 6 6 6 7 7 6 6 6 6 6 6 6 5 4 4 4 4 3 3 2 2 2 2 3 4 5 5 5 5
2 3 2 3 4 5 5 6 6 6 6 5 5 6 6 6 6 7 7 7 6 6 6 6 5 6 6 4 4 4 4 4 4 3 2 2 2 2 2 2 3 3 4 5
3 3 3 4 5 5 5 5 6 6 6 6 6 6 6 6 7 7 7 7 7 6 6 6 6 6 5 4 4 4 4 3 3 3 2 2 2 2 2 2 2 2 3 4
4 3 3 4 5 5 6 6 6 7 7 7 7 7 6 6 7 7 7 6 6 7 7 7 7 6 5 4 5 4 3 5 5 3 2 2 2 2 2 2 2 2 2 2
2 3 4 5 6 6 6 5 6 6 7 7 7 7 7 7 7 7 7 6 6 6 7 8 7 6 5 5 4 3 3 4 6 3 2 2 2 2 2 2 2 2 2 3
2 3 4 4 5 6 6 6 6 6 7 7 7 7 6 7 7 8 7 7 6 7 7 7 6 6 5 5 4 3 3 3 2 2 2 2 2 2 2 2 2 2 2 3
3 3 4 4 4 4 5 6 6 6 7 6 6 6 6 6 6 7 7 7 7 7 6 6 9 7 5 5 5 2 2 3 3 2 2 3 3 2 2 2 2 2 3 3
3 4 4 5 5 4 5 6 6 6 6 6 6 6 6 6 6 6 6 6 5 5 5 6 6 5 5 4 6 3 2 3 3 2 2 2 2 2 2 3 2 2 3 3
4 5 5 5 5 5 5 6 6 6 7 6 5 6 6 7 6 6 6 6 6 5 5 8 5 4 4 5 6 3 2 2 2 2 2 2 2 2 2 2 3 3 3 3
4 5 5 5 5 6 5 5 5 6 6 5 5 6 6 6 6 6 5 5 5 9 6 4 4 6 7 7 3 3 3 3 2 2 2 2 2 2 3 3 3 3 3 3
4 4 5 5 5 6 6 5 5 5 5 6 6 6 6 6 5 5 6 5 5 9 7 4 7 10 10 5 2 2 3 3 2 2 2 2 2 3 3 3 3 3 3 4
4 4 5 5 4 5 6 6 5 5 5 6 5 5 5 5 5 4 4 8 10 10 6 7 10 10 9 3 3 3 3 2 2 2 2 2 2 2 3 3 3 3 4 4
4 4 4 4 4 4 5 6 6 5 5 5 5 5 4 4 4 5 5 6 9 9 5 7 10 10 6 3 3 3 3 3 3 3 2 2 2 2 3 3 3 4 4 4
4 4 4 4 4 4 4 4 4 5 5 5 5 4 4 4 4 4 4 5 6 8 6 4 5 6 3 3 3 3 3 4 4 3 3 3 3 3 3 3 4 4 4 4
4 3 3 3 3 3 4 4 5 5 5 5 6 5 5 5 4 4 5 5 5 5 4 4 4 3 3 3 3 3 3 3 3 3 3 3 3 3 4 4 4 4 5 5
Wind_Direction
281 289 292 297 300 297 264 271 277 299 310 335 341 341 347 353 355 2 4 4 4 1 357 355 352 351 353 354 355 359 8 9 19 41 50 57 60 70 73 75 72 72 66 56
283 271 280 285 306 291 273 281 286 299 304 346 342 350 358 358 358 358 358 358 357 357 354 350 347 346 347 347 345 355 5 5 10 36 48 51 53 56 68 70 66 66 67 65
283 311 306 284 310 301 332 353 314 298 315 341 347 350 351 356 5 2 355 351 351 351 348 344 342 341 341 340 342 353 360 4 9 25 38 39 46 54 69 73 75 68 60 60
285 309 257 173 54 31 346 3 344 341 350 357 344 332 351 15 8 354 347 345 343 345 344 343 345 347 346 348 353 358 3 5 6 17 25 31 40 46 44 67 79 74 66 65
280 277 262 133 26 5 328 324 16 357 350 351 340 328 356 14 2 348 340 338 337 341 340 342 348 348 349 354 358 4 3 358 0 6 18 29 33 30 33 54 65 71 70 64
275 276 279 358 347 328 309 280 16 360 345 345 348 338 320 342 343 342 342 340 340 341 343 346 348 352 353 354 358 359 355 355 357 1 12 24 20 18 17 49 82 77 59 54
267 261 271 352 323 339 338 298 336 343 340 342 333 301 308 327 336 339 339 340 342 341 342 342 346 352 349 352 351 348 350 356 360 1 4 14 11 15 28 38 64 65 55 44
289 263 273 9 12 27 297 322 332 337 339 330 318 318 326 332 335 338 340 342 343 341 339 342 349 351 345 346 346 350 351 357 360 1 5 11 22 20 25 38 52 49 47 36
235 240 271 34 21 314 330 322 326 331 331 328 323 323 329 331 334 336 339 339 341 340 340 345 350 351 344 341 347 351 352 354 355 1 8 10 19 19 21 24 30 24 32 33
276 274 301 308 336 344 336 324 324 329 330 330 323 323 327 330 333 337 339 339 341 342 341 341 344 347 341 342 346 348 350 350 350 359 5 10 10 8 12 10 11 5 359 9
260 293 316 315 353 348 341 341 337 334 331 328 326 323 325 326 330 334 335 337 340 341 338 337 342 344 343 343 344 345 345 345 349 356 359 4 6 2 352 346 333 329 322 314
264 316 301 304 338 346 340 338 336 334 330 332 329 322 324 322 325 328 330 334 337 340 339 338 340 338 340 340 341 342 338 342 344 343 349 359 2 5 7 360 357 354 349 340
286 320 304 306 335 350 339 332 331 328 322 321 325 323 322 321 325 327 328 330 331 331 330 332 334 333 335 335 337 337 329 331 334 336 341 345 346 352 354 2 7 5 2 359
331 331 314 332 327 333 332 332 333 328 325 324 324 325 323 323 326 328 328 326 326 327 328 329 331 329 331 332 334 329 323 327 332 327 326 330 332 329 331 341 344 348 354 357
353 346 299 306 320 334 338 339 336 331 333 334 331 328 328 328 327 325 326 328 331 331 330 331 330 327 330 332 333 327 323 323 324 320 317 319 326 330 337 338 335 334 340 348
318 311 308 317 323 329 336 337 331 327 329 329 330 329 327 322 321 322 327 335 336 333 330 328 324 324 331 333 329 324 323 329 331 324 320 328 332 329 329 329 328 327 329 332
320 314 319 320 319 323 327 324 321 320 323 323 323 324 324 325 327 329 330 333 330 323 322 321 320 326 333 326 319 319 321 324 332 330 324 322 324 317 313 312 317 322 324 324
273 288 297 299 306 313 317 320 320 320 317 315 318 322 325 326 323 323 326 327 325 321 320 321 325 329 327 324 321 317 315 315 317 315 321 324 322 315 312 311 316 320 324 329
314 312 315 316 315 312 309 309 310 311 312 315 317 317 315 312 312 314 319 325 323 321 320 326 330 335 327 323 327 315 310 311 314 320 324 326 334 332 321 314 315 320 326 332
322 319 316 314 315 310 305 305 308 309 310 313 314 314 314 313 314 314 316 313 304 297 306 319 327 326 322 318 323 307 300 302 306 313 318 319 319 320 321 320 321 323 327 329
310 310 309 310 310 308 305 307 309 310 313 316 313 309 308 309 308 308 310 312 312 313 320 325 330 320 319 316 318 311 304 299 298 295 297 301 306 308 310 314 318 321 323 327
303 304 305 307 308 310 312 311 307 307 310 311 309 306 308 311 313 310 301 298 308 322 329 320 317 317 321 321 318 312 306 297 288 286 286 288 293 298 304 311 313 315 318 319
302 302 304 306 306 306 309 309 305 305 307 307 307 308 308 306 308 309 313 316 320 323 327 317 319 321 326 334 327 315 308 301 292 289 291 293 295 298 301 305 306 308 309 310
306 307 304 303 304 307 309 311 311 310 304 302 304 305 305 309 310 306 302 315 324 324 325 321 326 328 335 346 329 317 311 304 295 288 287 289 292 294 294 296 298 301 302 303
306 302 301 306 309 305 306 312 315 316 318 317 318 318 315 308 303 308 309 314 322 326 325 327 330 335 341 328 320 313 308 296 291 290 283 289 291 292 292 292 292 294 296 298
301 301 300 297 296 300 307 312 314 316 318 321 322 325 323 316 311 310 311 315 318 325 329 321 321 327 325 318 317 315 310 310 316 315 302 296 291 288 287 289 291 292 294 294
299 300 303 309 310 311 310 310 310 313 318 318 317 319 320 320 321 322 323 324 324 324 323 322 323 321 319 317 315 314 312 309 307 304 301 295 292 289 290 292 293 294 294 293
Height
1514 1510 1509 1510 1511 1510 1513 1512 1512 1508 1507 1508 1507 1505 1503 1500 1497 1495 1492 1490 1487 1485 1483 1481 1478 1476 1474 1472 1471 1470 1469 1468 1468 1468 1469 1469 1470 1471 1471 1472 1473 1474 1474 1475
1514 1508 1506 1509 1510 1509 1510 1511 1510 1508 1509 1508 1507 1504 1503 1500 1498 1495 1493 1490 1488 1485 1483 1480 1478 1476 1474 1472 1471 1469 1468 1467 1467 1467 1467 1468 1468 1469 1470 1470 1471 1472 1473 1474
1515 1508 1508 1511 1512 1511 1511 1512 1512 1513 1513 1509 1506 1505 1503 1501 1499 1496 1494 1491 1488 1486 1483 1481 1478 1476 1474 1472 1470 1469 1468 1467 1467 1467 1466 1466 1467 1468 1468 1469 1469 1470 1471 1472
1517 1514 1519 1518 1512 1511 1512 1513 1512 1512 1511 1510 1508 1505 1503 1502 1499 1496 1494 1491 1488 1486 1483 1480 1478 1476 1474 1472 1470 1469 1467 1466 1466 1466 1466 1466 1466 1466 1467 1467 1468 1468 1469 1470
1519 1517 1513 1514 1513 1513 1514 1514 1513 1512 1511 1509 1507 1503 1502 1501 1499 1497 1494 1491 1488 1485 1483 1480 1477 1475 1473 1471 1470 1468 1467 1466 1465 1466 1465 1465 1464 1465 1466 1466 1466 1467 1467 1468
1519 1519 1517 1519 1515 1513 1514 1514 1514 1513 1511 1510 1507 1506 1503 1500 1498 1495 1492 1489 1487 1484 1481 1479 1476 1474 1472 1470 1469 1468 1466 1466 1465 1465 1464 1464 1464 1464 1464 1465 1465 1465 1466 1467
1522 1520 1519 1520 1515 1513 1518 1520 1515 1513 1511 1510 1508 1508 1504 1500 1497 1494 1491 1488 1485 1482 1480 1478 1476 1473 1471 1470 1468 1468 1466 1466 1465 1464 1464 1463 1463 1463 1463 1463 1464 1464 1464 1465
1522 1522 1524 1520 1517 1519 1520 1517 1514 1512 1511 1509 1506 1504 1501 1498 1495 1492 1489 1486 1483 1481 1479 1477 1475 1473 1471 1469 1468 1467 1466 1465 1464 1464 1463 1463 1462 1462 1462 1462 1462 1462 1463 1463
1524 1525 1521 1519 1519 1519 1517 1515 1513 1511 1509 1507 1504 1502 1499 1496 1493 1490 1488 1485 1482 1480 1478 1476 1474 1472 1470 1469 1468 1466 1465 1464 1464 1463 1463 1462 1462 1461 1461 1461 1461 1461 1461 1462
1521 1519 1518 1518 1517 1516 1515 1513 1512 1510 1508 1505 1502 1500 1497 1494 1491 1489 1486 1483 1481 1479 1476 1474 1473 1471 1470 1468 1467 1466 1465 1464 1463 1462 1462 1461 1461 1461 1461 1460 1460 1460 1460 1461
1520 1518 1517 1516 1515 1514 1512 1511 1509 1507 1505 1503 1500 1498 1495 1492 1490 1487 1485 1482 1480 1477 1475 1473 1472 1470 1469 1467 1466 1465 1464 1463 1462 1461 1461 1460 1460 1460 1460 1460 1460 1460 1459 1459
1519 1518 1517 1515 1514 1512 1510 1508 1507 1504 1502 1500 1498 1495 1493 1490 1488 1485 1483 1480 1478 1476 1474 1472 1470 1469 1467 1466 1465 1464 1463 1462 1461 1460 1460 1459 1459 1459 1459 1459 1458 1458 1458 1458
1517 1516 1515 1513 1512 1510 1508 1506 1504 1502 1500 1497 1495 1493 1490 1488 1485 1483 1481 1478 1476 1474 1472 1470 1469 1467 1466 1464 1463 1462 1461 1461 1460 1459 1459 1458 1457 1457 1456 1456 1456 1456 1456 1456
1515 1514 1512 1511 1510 1508 1506 1504 1502 1500 1498 1495 1493 1490 1488 1485 1483 1480 1478 1476 1474 1472 1470 1468 1466 1465 1464 1463 1462 1461 1460 1459 1459 1458 1457 1457 1456 1456 1455 1454 1454 1453 1454 1453
1513 1512 1511 1509 1507 1506 1504 1502 1499 1497 1495 1493 1491 1488 1485 1483 1480 1478 1476 1474 1472 1470 1468 1466 1464 1462 1461 1460 1459 1459 1458 1457 1457 1456 1456 1455 1455 1454 1453 1453 1453 1452 1451 1451
1510 1509 1508 1507 1505 1504 1502 1499 1497 1495 1493 1490 1488 1485 1483 1481 1478 1476 1474 1472 1469 1467 1465 1463 1462 1460 1459 1458 1457 1456 1456 1456 1455 1455 1454 1453 1453 1452 1452 1451 1451 1450 1450 1449
1509 1507 1506 1504 1503 1501 1499 1497 1495 1493 1490 1488 1485 1483 1481 1478 1476 1473 1471 1469 1467 1465 1463 1461 1459 1458 1457 1456 1455 1454 1454 1453 1453 1453 1452 1452 1451 1451 1450 1450 1449 1448 1448 1447
1507 1506 1504 1503 1500 1498 1496 1494 1492 1490 1488 1485 1483 1480 1478 1475 1473 1471 1469 1467 1465 1463 1461 1459 1458 1456 1455 1454 1453 1453 1452 1451 1451 1450 1450 1450 1449 1449 1448 1448 1447 1446 1445 1445
1505 1503 1502 1500 1498 1496 1494 1492 1489 1487 1485 1482 1480 1477 1475 1473 1471 1469 1467 1465 1462 1460 1459 1458 1456 1455 1454 1452 1452 1451 1450 1449 1449 1448 1448 1447 1447 1446 1446 1445 1445 1444 1443 1442
1502 1501 1499 1497 1495 1493 1491 1489 1487 1484 1482 1479 1477 1474 1472 1470 1469 1466 1464 1462 1461 1459 1457 1456 1454 1453 1451 1451 1450 1449 1448 1447 1446 1446 1445 1445 1444 1444 1443 1443 1442 1442 1441 1440
1500 1498 1497 1495 1492 1491 1488 1486 1484 1481 1479 1477 1474 1472 1470 1468 1466 1464 1462 1460 1459 1457 1455 1454 1452 1450 1449 1448 1447 1447 1446 1445 1444 1443 1443 1443 1442 1442 1441 1441 1440 1439 1439 1438
1497 1496 1494 1492 1490 1488 1486 1484 1481 1479 1476 1474 1472 1470 1468 1465 1464 1462 1460 1458 1456 1455 1453 1451 1450 1448 1447 1446 1445 1444 1443 1442 1442 1441 1441 1440 1440 1439 1439 1438 1438 1437 1437 1436
1495 1493 1491 1489 1487 1485 1483 1481 1479 1477 1474 1472 1470 1468 1465 1463 1462 1460 1457 1456 1454 1453 1451 1449 1447 1446 1445 1444 1442 1441 1440 1440 1439 1439 1438 1438 1437 1437 1436 1436 1435 1435 1434 1433
1492 1491 1489 1487 1485 1482 1480 1478 1477 1474 1472 1470 1468 1466 1464 1461 1459 1458 1456 1454 1452 1451 1449 1447 1445 1444 1443 1441 1440 1439 1438 1437 1437 1436 1436 1435 1434 1434 1433 1433 1432 1432 1431 1430
1490 1488 1486 1484 1482 1480 1478 1476 1474 1472 1470 1468 1466 1464 1462 1460 1458 1455 1454 1452 1450 1448 1446 1445 1443 1442 1440 1439 1438 1437 1436 1435 1434 1433 1433 1432 1431 1431 1430 1430 1429 1428 1428 1427
1487 1486 1484 1482 1480 1478 1476 1474 1472 1470 1468 1465 1463 1461 1459 1458 1456 1454 1452 1450 1448 1446 1444 1443 1441 1440 1438 1437 1436 1435 1434 1433 1432 1431 1430 1429 1429 1428 1427 1427 1426 1425 1424 1423
1485 1483 1482 1480 1478 1476 1474 1472 1470 1468 1466 1463 1461 1459 1457 1455 1453 1451 1450 1448 1446 1444 1442 1441 1439 1438 1436 1435 1434 1432 1431 1430 1429 1428 1427 1426 1426 1425 1424 1423 1423 1422 1421 1420